Nagpur Sonegaon, India

7:13 AM IST on August 18, 2017 (GMT +0530)
Nagpur

Weather History for VANP - April, 2013

Change the Weather History Date:

Wednesday, April 17, 2013

  Actual Average Record
Temperature  
Mean Temperature 92 °F -  
Max Temperature 109 °F 107 °F - ()
Min Temperature 76 °F 79 °F - ()
Cooling Degree Days 28    
Growing Degree Days 42 (Base 50)    
Moisture  
Dew Point 47 °F    
Average Humidity 19    
Maximum Humidity 34    
Minimum Humidity 7    
Precipitation  
Precipitation 0.00 in 0.02 in - ()
Sea Level Pressure  
Sea Level Pressure 29.62 in    
Wind  
Wind Speed 5 mph ()    
Max Wind Speed 14 mph    
Max Gust Speed -    
Visibility 3.2 miles    
Events      
T = Trace of Precipitation, MM = Missing Value Source: Averaged Metar Reports

Daily Weather History Graph

Daily Weather History Graph

Search for Another Location

Airport or City:

Trip Planner

Search our weather history database for the weather conditions in past years. The results will help you decide how hot, cold, wet, or windy it might be!

Date:

Astronomy

Apr. 17, 2013 Rise Set
Actual Time 5:53 AM IST 6:33 PM IST
Civil Twilight 5:30 AM IST 6:56 PM IST
Nautical Twilight 5:04 AM IST 7:22 PM IST
Astronomical Twilight 4:37 AM IST 7:50 PM IST
Moon 10:57 AM IST (4/17) 12:19 AM IST
Length of Visible Light 13h 25m
Length of Day
12h 40m
Waxing Crescent, 38% of the Moon is Illuminated
Apr 17
Waxing Crescent
Apr 18
First Quarter
Apr 26
Full
May 2
Last Quarter
May 10
New

Hourly Weather History & Observations

Time (IST) Temp. Dew Point Humidity Pressure Visibility Wind Dir Wind Speed Gust Speed Precip Events Conditions
12:10 AM 93.2 °F 42.8 °F 17% 29.65 in 3.1 mi Calm Calm - N/A   Haze
1:10 AM 91.4 °F 42.8 °F 18% 29.62 in 3.1 mi NNW 4.6 mph - N/A   Haze
2:10 AM 91.4 °F 42.8 °F 18% 29.62 in 3.1 mi NNW 2.3 mph - N/A   Haze
2:40 AM 86.0 °F 42.8 °F 22% 29.62 in 3.1 mi NW 2.3 mph - N/A   Haze
3:10 AM 86.0 °F 42.8 °F 22% 29.62 in 3.1 mi WNW 4.6 mph - N/A   Haze
3:40 AM 86.0 °F 42.8 °F 22% 29.62 in 3.1 mi NW 4.6 mph - N/A   Haze
4:40 AM 86.0 °F 41.0 °F 20% 29.62 in 3.1 mi NW 5.8 mph - N/A   Haze
5:10 AM 84.2 °F 41.0 °F 22% 29.65 in 3.1 mi NNW 5.8 mph - N/A   Haze
5:30 AM 81 °F 55 °F 30% 29.61 in 2 mi NW 4.6 mph - -   Haze
6:10 AM 84.2 °F 41.0 °F 22% 29.65 in 3.1 mi NW 4.6 mph - N/A   Haze
6:40 AM 87.8 °F 48.2 °F 25% 29.65 in 3.1 mi NNW 10.4 mph - N/A   Haze
7:40 AM 89.6 °F 50.0 °F 26% 29.68 in 3.1 mi WSW 6.9 mph - N/A   Haze
8:10 AM 93.2 °F 51.8 °F 24% 29.71 in 3.1 mi WNW 9.2 mph - N/A   Haze
8:30 AM 91 °F 58 °F 23% 29.63 in 2 mi NW 12.7 mph - -  
8:40 AM 95.0 °F 50.0 °F 22% 29.71 in 3.1 mi NW 13.8 mph - N/A   Haze
11:10 AM 105.8 °F 48.2 °F 14% 29.71 in 4.3 mi NW 10.4 mph - N/A   Unknown
11:30 AM 104 °F 56 °F 12% 29.59 in 2 mi NW 9.2 mph - -  
12:10 PM 107.6 °F 46.4 °F 13% 29.68 in 4.3 mi WNW 9.2 mph - N/A   Partly Cloudy
1:10 PM 109.4 °F 42.8 °F 11% 29.65 in 4.3 mi WNW 12.7 mph - N/A   Partly Cloudy
2:10 PM 109.4 °F 41.0 °F 10% 29.62 in 4.3 mi WNW 9.2 mph - N/A   Partly Cloudy
2:30 PM 110 °F 50 °F 7% 29.50 in 2 mi WSW 9.2 mph - -   Partly Cloudy
3:10 PM 109.4 °F 42.8 °F 11% 29.59 in 4.3 mi WSW 5.8 mph - N/A   Partly Cloudy
4:10 PM 109.4 °F 44.6 °F 11% 29.56 in 3.7 mi WSW 4.6 mph - N/A   Partly Cloudy
5:10 PM 107.6 °F 42.8 °F 11% 29.56 in 3.7 mi West 3.5 mph - N/A   Partly Cloudy
5:30 PM 103 °F 53 °F 11% 29.48 in 2 mi NW 3.5 mph - -   Scattered Clouds
6:10 PM 104.0 °F 46.4 °F 14% 29.56 in 3.7 mi NW 4.6 mph - N/A   Partly Cloudy
7:10 PM 102.2 °F 44.6 °F 14% 29.59 in 3.7 mi Calm Calm - N/A   Partly Cloudy
8:10 PM 100.4 °F 46.4 °F 16% 29.59 in 3.7 mi Calm Calm - N/A   Partly Cloudy
8:30 PM 89 °F 54 °F 21% 29.56 in 2 mi Calm Calm - -   Scattered Clouds
10:10 PM 87.8 °F 48.2 °F 25% 29.65 in 3.7 mi Calm Calm - N/A   Partly Cloudy
11:10 PM 80.6 °F 50.0 °F 34% 29.65 in - North - - N/A   Partly Cloudy
11:30 PM 82 °F 52 °F 25% 29.61 in 2 mi Calm Calm - -